Location: Bradley
(41.1420°N, 87.8610°W)
Time: 06:37:25
(UTC-06:00)

N. Korean satellite - Visible Passes

Search period start: 16 December 2018 00:00
Search period end: 26 December 2018 00:00
Orbit: 456 x 511 km, 97.2° (Epoch: 15 December)

Date Brightness Start Highest point End Pass type
(mag) Time Alt. Az. Time Alt. Az. Time Alt. Az.
16 Dec 8.8 05:34:25 10° NE 05:37:34 28° E 05:40:44 10° SSE visible
16 Dec 7.8 17:43:13 10° S 17:46:29 42° W 17:49:47 10° NNW visible
17 Dec 9.9 05:10:51 10° ENE 05:12:51 14° E 05:14:53 10° SE visible
17 Dec 6.3 17:18:28 10° SSE 17:21:53 83° E 17:25:21 10° N visible
18 Dec 6.5 06:18:18 10° N 06:21:55 73° WNW 06:25:33 10° SSW visible
18 Dec 7.0 16:54:12 10° SE 16:57:22 36° ENE 17:00:34 10° N visible
18 Dec 10.0 18:29:46 10° WSW 18:31:01 12° W 18:32:14 10° WNW visible
19 Dec 7.5 05:53:47 10° NNE 05:57:19 51° E 06:00:54 10° S visible
19 Dec 9.0 18:03:27 10° SSW 18:06:14 23° W 18:09:04 10° NW visible
20 Dec 9.1 05:29:37 10° NE 05:32:40 25° E 05:35:44 10° SSE visible
20 Dec 7.4 17:38:14 10° S 17:41:34 50° W 17:44:56 10° NNW visible
21 Dec 10.0 05:06:15 10° ENE 05:07:56 13° E 05:09:38 10° ESE visible
21 Dec 7.1 06:38:07 10° N 06:41:31 39° WNW 06:44:58 10° SW visible
21 Dec 6.4 17:13:34 10° SSE 17:16:58 71° ENE 17:20:25 10° N visible
22 Dec 6.5 06:13:21 10° N 06:17:00 84° WNW 06:20:42 10° SSW visible
22 Dec 9.8 18:24:17 10° WSW 18:26:01 13° W 18:27:46 10° WNW visible
23 Dec 7.9 05:48:53 10° NNE 05:52:24 44° E 05:55:57 10° S visible
23 Dec 8.8 17:58:18 10° SSW 18:01:16 27° W 18:04:16 10° NW visible
24 Dec 9.3 05:24:48 10° NE 05:27:43 22° E 05:30:39 10° SSE visible
24 Dec 7.1 17:33:12 10° S 17:36:35 59° W 17:40:02 10° NNW visible
25 Dec 10.1 05:01:44 10° ENE 05:02:57 11° E 05:04:10 10° ESE visible
25 Dec 6.9 06:33:05 10° N 06:36:37 45° WNW 06:40:10 10° SSW visible
25 Dec 6.5 17:08:36 10° SSE 17:12:00 60° ENE 17:15:27 10° N visible
